Williamsport, PA

1:43 PM EDT on March 25, 2017 (GMT -0400)
Williamsport Rgnl

Weather History for KIPT - June, 2012

Change the Weather History Date:

Sunday, June 3, 2012

  Actual Average Record
Temperature  
Mean Temperature 60 °F 65 °F  
Max Temperature 70 °F 77 °F 95 °F (1923)
Min Temperature 50 °F 54 °F 36 °F (1986)
Degree Days  
Heating Degree Days 5 3  
Month to date heating degree days 10 9  
Since 1 June heating degree days 10 9  
Since 1 July heating degree days 4773 5967  
Cooling Degree Days 0 3  
Month to date cooling degree days 0 9  
Year to date cooling degree days 108 52  
Since 1 June cooling degree days 0 9  
Growing Degree Days 10 (Base 50)    
Moisture  
Dew Point 53 °F    
Average Humidity 75    
Maximum Humidity 93    
Minimum Humidity 56    
Precipitation  
Precipitation 0.35 in 0.12 in 2.20 in (1922)
Month to date precipitation 1.72 0.37  
Year to date precipitation 13.56 15.28  
Sea Level Pressure  
Sea Level Pressure 29.73 in    
Wind  
Wind Speed 4 mph (WSW)    
Max Wind Speed 16 mph    
Max Gust Speed 22 mph    
Visibility 8 miles    
Events Rain , Thunderstorm    
T = Trace of Precipitation, MM = Missing Value Source: NWS Daily Summary

Daily Weather History Graph

Daily Weather History Graph

Search for Another Location

Airport or City:

Trip Planner

Search our weather history database for the weather conditions in past years. The results will help you decide how hot, cold, wet, or windy it might be!

Date:

Astronomy

Jun. 03, 2012 Rise Set
Actual Time 5:36 AM EDT 8:36 PM EDT
Civil Twilight 5:02 AM EDT 9:09 PM EDT
Nautical Twilight 4:20 AM EDT 9:51 PM EDT
Astronomical Twilight 3:31 AM EDT 10:41 PM EDT
Moon 7:59 PM EDT (6/3) 4:43 AM EDT (6/3)
Length of Visible Light 16h 06m
Length of Day
15h 00m
Waxing Gibbous, 99% of the Moon is Illuminated
Jun 3
Waxing Gibbous
Jun 4
Full
Jun 11
Last Quarter
Jun 19
New
Jun 26
First Quarter

Hourly Weather History & Observations

Time (EDT) Temp. Dew Point Humidity Pressure Visibility Wind Dir Wind Speed Gust Speed Precip Events Conditions
12:54 AM 55.9 °F 52.0 °F 87% 29.80 in 10.0 mi Calm Calm - N/A   Mostly Cloudy
1:54 AM 55.0 °F 51.1 °F 86% 29.79 in 10.0 mi Calm Calm - N/A   Mostly Cloudy
2:54 AM 53.1 °F 50.0 °F 89% 29.78 in 10.0 mi Calm Calm - N/A   Clear
3:54 AM 53.1 °F 50.0 °F 89% 29.77 in 10.0 mi Calm Calm - N/A   Mostly Cloudy
4:54 AM 51.1 °F 48.9 °F 92% 29.77 in 8.0 mi North 3.5 mph - N/A   Clear
5:54 AM 50.0 °F 48.9 °F 96% 29.78 in 6.0 mi Calm Calm - N/A   Clear
6:45 AM 51.8 °F 50.0 °F 94% 29.79 in 8.0 mi Calm Calm - N/A   Partly Cloudy
6:54 AM 53.1 °F 50.0 °F 89% 29.78 in 8.0 mi Calm Calm - N/A   Partly Cloudy
7:54 AM 55.0 °F 51.1 °F 86% 29.78 in 10.0 mi Calm Calm - N/A   Clear
8:54 AM 57.9 °F 51.1 °F 78% 29.78 in 10.0 mi Calm Calm - N/A   Clear
9:54 AM 60.1 °F 50.0 °F 69% 29.78 in 10.0 mi Calm Calm - N/A   Clear
10:54 AM 61.0 °F 50.0 °F 67% 29.78 in 9.0 mi West 10.4 mph - 0.00 in Rain Light Rain
11:54 AM 63.0 °F 51.1 °F 65% 29.77 in 10.0 mi West 9.2 mph - 0.01 in   Scattered Clouds
12:54 PM 66.0 °F 50.0 °F 56% 29.75 in 10.0 mi West 11.5 mph - N/A   Clear
1:54 PM 66.9 °F 52.0 °F 59% 29.72 in 10.0 mi West 9.2 mph 18.4 mph N/A   Mostly Cloudy
2:37 PM 62.6 °F 53.6 °F 72% 29.73 in 2.5 mi WSW 15.0 mph 21.9 mph 0.00 in Rain , Thunderstorm Thunderstorms and Rain
2:46 PM 60.8 °F 55.4 °F 82% 29.72 in 10.0 mi WSW 9.2 mph - 0.02 in Rain , Thunderstorm Light Thunderstorms and Rain
2:54 PM 63.0 °F 57.0 °F 81% 29.72 in 10.0 mi WSW 10.4 mph 19.6 mph 0.02 in Thunderstorm Thunderstorm
3:13 PM 64.4 °F 55.4 °F 73% 29.71 in 10.0 mi West 8.1 mph - N/A   Mostly Cloudy
3:54 PM 70.0 °F 55.0 °F 59% 29.68 in 10.0 mi WSW 15.0 mph 20.7 mph N/A   Mostly Cloudy
4:10 PM 66.2 °F 53.6 °F 64% 29.69 in 9.0 mi West 12.7 mph 19.6 mph 0.00 in Rain , Thunderstorm Light Rain
4:54 PM 59.0 °F 55.9 °F 90% 29.71 in 3.0 mi South 5.8 mph - 0.22 in Rain , Thunderstorm Light Thunderstorms and Rain
5:54 PM 63.0 °F 55.9 °F 78% 29.69 in 10.0 mi WSW 4.6 mph - 0.00 in Thunderstorm Thunderstorm
6:11 PM 64.4 °F 55.4 °F 73% 29.68 in 10.0 mi Calm Calm - N/A   Clear
6:54 PM 64.9 °F 54.0 °F 68% 29.68 in 10.0 mi Calm Calm - N/A   Clear
7:54 PM 62.1 °F 57.0 °F 84% 29.67 in 10.0 mi Calm Calm - N/A   Scattered Clouds
8:06 PM 62.6 °F 57.2 °F 82% 29.70 in 10.0 mi West 6.9 mph - N/A Thunderstorm Mostly Cloudy
8:13 PM 60.8 °F 57.2 °F 88% 29.70 in 1.8 mi SW 5.8 mph - 0.00 in Rain , Thunderstorm Heavy Rain
8:21 PM 60.8 °F 57.2 °F 88% 29.71 in 3.0 mi WSW 5.8 mph - 0.09 in Rain , Thunderstorm Rain
8:54 PM 60.1 °F 55.0 °F 83% 29.69 in 3.0 mi WNW 8.1 mph - 0.10 in Rain , Thunderstorm Light Rain
9:52 PM 59.0 °F 55.4 °F 88% 29.72 in 10.0 mi West 6.9 mph - 0.00 in   Scattered Clouds
9:54 PM 59.0 °F 55.0 °F 87% 29.73 in 10.0 mi West 8.1 mph - 0.00 in   Mostly Cloudy
10:54 PM 57.0 °F 55.0 °F 93% 29.72 in 10.0 mi WSW 3.5 mph - N/A   Mostly Cloudy
11:47 PM 55.4 °F 53.6 °F 94% 29.70 in 1.5 mi Calm Calm - N/A   Partly Cloudy
11:54 PM 55.9 °F 54.0 °F 93% 29.70 in 1.2 mi Calm Calm - N/A   Scattered Clouds
11:59 PM 55.4 °F 53.6 °F 94% 29.70 in 3.0 mi East 3.5 mph - N/A   Mostly Cloudy